Theta_e
295 295 295 295 295 295 295 295 295 295 296 296 297 297 297 297 300 299 297 299 295 288 289 290 291 288 287 287 287 285 285 284 283 283 284 284 284 282 282 282 280 281 280 280 283 281 280 281 281 283 283 281 283 284
294 294 294 295 295 295 294 294 294 294 295 296 296 297 297 297 298 300 293 298 297 290 289 289 290 292 292 291 287 285 285 285 287 285 284 285 281 281 283 280 281 281 285 283 285 283 281 281 281 283 283 283 284 286
293 293 293 294 294 294 294 294 293 294 294 295 295 296 297 298 298 298 294 293 292 285 287 283 283 288 291 291 293 285 285 287 286 287 286 285 281 282 280 281 278 280 282 282 282 281 280 282 284 283 281 281 282 284
292 292 292 292 293 293 293 293 293 293 294 294 295 295 296 297 298 298 294 294 292 287 283 280 286 284 288 290 290 290 289 287 286 286 285 283 282 282 279 280 281 280 282 280 276 278 281 283 283 284 285 281 280 281
291 291 291 292 292 292 293 293 292 292 293 294 294 295 295 296 298 297 295 296 295 289 282 279 280 283 286 288 288 290 288 286 285 283 283 281 281 280 278 279 278 279 280 280 279 281 283 284 286 286 285 282 280 280
290 291 291 291 291 292 292 292 292 292 293 293 294 294 295 295 297 293 285 293 297 295 284 275 282 282 281 285 287 287 286 285 285 284 281 281 281 281 278 274 280 280 281 284 281 282 285 284 286 285 282 281 281 280
290 290 290 290 291 291 292 292 292 292 293 293 294 294 295 295 294 287 285 291 297 294 284 277 277 281 281 281 279 281 283 283 284 282 281 279 278 281 278 273 280 280 280 280 281 281 278 279 280 282 282 281 280 278
289 289 290 290 291 291 291 291 292 292 292 293 293 294 294 295 294 289 294 296 296 287 285 279 272 277 281 278 274 280 278 279 279 279 278 277 278 279 274 280 279 279 280 279 280 279 279 279 278 278 278 277 275 276
289 289 289 290 290 290 290 291 291 292 292 292 293 293 291 289 285 286 296 296 295 288 281 277 271 273 282 281 278 276 280 274 278 273 276 276 272 271 276 278 277 276 277 278 277 276 275 276 276 275 274 273 274 274
288 288 289 289 290 290 290 290 291 291 292 292 289 284 281 286 294 295 290 285 284 284 284 276 274 273 281 279 276 274 274 270 265 272 277 269 268 273 270 270 269 269 269 271 273 273 272 272 274 274 273 274 274 274
288 288 289 289 289 290 290 291 291 292 292 286 282 281 285 295 289 284 281 280 280 278 281 277 274 275 281 274 274 278 269 270 268 268 268 263 264 269 266 265 266 265 265 265 266 269 271 271 273 274 273 272 271 270
288 288 289 289 290 290 291 291 291 289 286 285 285 288 286 283 282 279 278 279 278 274 275 271 273 275 276 280 272 272 269 272 265 270 266 263 266 261 260 260 260 260 259 260 262 263 265 266 264 266 265 264 263 263
287 287 287 288 289 290 290 291 293 293 291 287 283 281 276 278 274 273 271 272 272 273 276 277 273 275 275 279 273 275 267 267 274 266 264 261 261 258 256 256 256 256 256 257 258 260 260 259 258 257 258 258 258 258
287 285 286 286 287 289 290 291 293 291 283 280 275 273 274 272 271 268 272 274 277 275 276 277 276 277 275 272 275 271 273 272 267 261 262 256 255 252 254 254 251 252 252 254 255 256 256 256 255 254 254 255 255 255
287 287 285 284 287 288 289 292 293 287 278 277 272 270 272 268 267 263 266 269 273 280 280 276 276 278 275 274 274 271 268 268 267 262 256 255 254 253 252 252 250 250 251 252 253 253 254 254 253 252 252 252 253 254
284 283 280 285 286 287 290 286 281 278 270 268 260 264 266 268 268 269 272 273 275 279 277 277 275 273 272 272 270 269 268 264 256 252 255 256 253 252 249 249 249 250 251 252 252 252 252 252 251 249 251 253 252 253
281 275 283 284 285 281 283 278 273 268 266 265 261 262 263 264 262 262 264 264 268 278 274 276 272 270 274 268 261 256 253 254 256 255 255 255 254 253 250 249 249 249 250 250 248 250 249 249 250 253 252 251 253 253
274 277 282 283 281 277 270 270 268 265 261 262 258 259 258 257 259 258 259 261 265 272 270 264 267 259 255 257 252 253 255 256 256 255 254 254 253 253 252 250 250 250 250 251 250 251 252 252 252 251 249 250 252 255
276 278 280 281 279 271 267 264 266 260 259 261 263 263 260 258 258 257 257 260 259 258 258 255 249 250 249 250 251 251 252 252 252 255 255 254 253 253 253 253 253 253 253 253 252 252 252 253 253 253 253 253 252 252
279 279 278 276 276 270 263 262 267 262 259 260 262 259 258 257 257 257 254 255 255 251 246 246 245 246 248 249 251 251 252 253 253 254 254 255 255 254 252 251 252 253 254 255 254 255 253 253 254 254 253 254 252 251
272 272 273 269 265 263 260 261 259 260 262 259 260 261 258 258 253 253 252 253 249 248 246 247 247 248 250 250 251 251 251 251 251 251 250 252 255 254 253 255 254 253 253 254 253 253 252 251 250 251 250 249 249 251
266 271 263 265 264 262 260 261 260 261 260 259 259 258 255 252 251 250 253 249 247 248 248 248 248 247 248 248 249 249 249 250 252 253 254 254 251 250 250 251 252 251 251 251 252 252 251 251 250 248 247 247 249 249
265 264 260 257 257 256 255 262 259 258 257 257 257 254 253 251 252 255 248 249 249 251 250 249 250 251 250 251 251 251 252 253 251 252 253 252 252 252 251 251 250 249 249 251 252 250 248 252 249 248 248 248 248 248
260 252 251 250 250 248 254 254 257 257 256 254 253 250 250 251 253 249 245 246 249 250 250 250 251 251 251 251 250 250 251 254 252 252 252 253 251 251 251 250 249 248 246 246 247 246 248 247 249 248 247 245 246 247
248 243 246 242 247 247 247 247 249 252 250 251 250 249 249 251 247 246 245 246 248 248 249 250 250 250 249 249 250 251 252 252 251 249 250 251 252 252 252 251 248 248 246 247 247 245 245 244 244 244 244 243 243 243
240 245 242 242 243 244 245 244 244 245 248 247 248 251 250 247 244 242 244 246 247 248 248 248 248 248 249 249 249 249 250 252 251 249 249 250 249 248 247 247 246 247 250 246 244 242 243 244 242 244 244 244 246 244
239 242 247 248 245 245 244 245 245 243 241 242 244 246 245 241 241 244 248 250 249 249 250 249 249 248 247 248 249 249 250 250 248 247 248 247 246 245 244 242 241 244 246 245 243 241 244 245 245 248 244 243 242 243
245 245 242 245 243 244 241 241 240 239 240 243 243 241 240 240 241 246 249 251 250 249 247 245 245 243 241 241 241 243 241 244 243 244 246 246 243 242 241 241 242 252 246 245 245 247 244 245 245 248 247 245 245 243
245 246 246 243 243 243 241 241 241 242 244 240 239 240 241 244 245 246 248 249 247 244 240 240 241 240 240 239 239 238 238 240 240 239 237 238 239 242 242 241 242 243 243 241 249 251 250 250 250 248 246 244 246 245
244 247 244 243 241 241 243 244 244 246 244 245 246 246 245 244 246 248 245 243 242 240 238 237 236 235 236 235 237 239 236 236 238 238 236 237 238 240 242 242 242 242 243 240 245 244 248 247 246 242 242 242 243 243
246 246 243 243 242 243 244 245 247 248 245 244 244 243 241 243 245 244 243 239 236 235 236 236 235 234 236 236 234 234 238 237 236 237 237 238 240 240 240 242 243 242 243 241 241 241 244 243 242 241 241 241 241 242
242 240 242 241 241 244 244 243 242 243 241 240 240 238 239 238 237 238 241 238 236 237 238 236 234 238 237 237 236 237 242 241 240 241 239 242 242 242 244 245 246 247 243 243 243 243 242 241 241 241 241 240 240 240
238 239 237 237 238 237 237 238 238 237 237 235 237 235 235 237 239 241 243 239 240 239 238 238 238 238 238 239 239 239 242 240 239 248 249 249 249 249 249 248 248 245 243 241 242 242 241 241 240 240 240 240 240 240
Wind_Speed
22 23 23 23 22 20 19 19 19 18 18 21 20 20 14 17 22 9 2 8 4 4 2 6 5 5 1 1 6 6 4 1 2 5 5 4 3 4 3 4 6 7 8 5 5 5 9 6 3 10 4 3 1 4
20 20 20 21 21 20 18 19 19 19 18 20 21 19 19 20 20 15 3 4 3 3 0 0 2 1 2 4 3 4 1 4 6 5 4 3 3 3 5 4 2 5 7 6 7 4 1 1 1 2 1 4 3 5
19 18 17 18 18 19 18 19 18 19 20 18 21 21 21 18 20 15 3 4 3 1 2 1 5 4 2 3 1 4 1 1 2 2 2 3 3 2 6 6 3 3 1 2 4 2 2 2 3 4 2 3 3 4
19 18 18 18 19 20 18 20 20 19 20 19 20 20 22 17 23 18 5 5 5 3 3 3 1 4 2 3 2 2 3 4 3 2 1 2 3 1 2 1 2 3 7 5 2 2 2 7 6 4 3 1 3 4
20 19 20 21 20 20 20 20 20 20 21 19 21 20 21 21 22 12 6 6 8 5 2 3 1 2 0 4 4 4 5 4 2 2 1 1 2 3 1 2 2 5 6 5 4 8 4 7 10 8 6 5 4 5
19 18 19 20 21 19 21 19 20 21 19 20 21 20 21 21 18 6 3 6 12 4 4 3 3 1 1 5 6 6 3 2 1 2 2 1 2 2 3 3 1 4 6 8 6 12 7 3 11 6 5 5 5 5
20 20 19 17 17 18 18 18 18 18 18 17 18 20 21 21 10 5 3 1 15 5 4 4 4 2 3 4 2 2 1 1 1 1 1 2 2 0 1 3 4 7 6 3 1 7 1 3 4 6 6 7 5 4
18 20 19 16 17 18 16 15 16 15 15 14 14 14 18 20 16 9 9 6 14 4 3 5 3 4 4 3 2 1 2 1 3 2 2 2 2 1 3 5 3 2 4 4 6 6 2 7 5 4 4 4 4 3
17 20 18 15 16 18 17 15 14 16 16 14 13 15 8 8 5 3 13 15 8 4 5 4 9 6 5 2 3 1 1 2 1 2 1 4 1 4 3 2 7 9 4 2 3 5 6 6 5 4 4 3 5 4
15 15 16 16 19 18 19 18 16 15 16 11 5 3 5 7 12 12 7 8 7 4 3 3 3 6 7 4 3 4 1 3 2 4 3 3 4 5 8 9 8 10 11 11 4 4 5 3 2 2 3 2 4 3
14 16 16 16 18 16 14 16 20 21 19 1 4 5 2 15 4 4 5 7 6 6 4 3 4 11 2 4 4 1 4 3 4 6 6 2 4 4 9 9 11 11 12 10 6 5 6 5 6 5 5 6 4 2
12 12 14 14 15 16 17 20 24 15 4 7 4 1 2 3 5 9 9 3 3 5 4 4 4 5 2 4 5 2 4 3 5 4 5 3 2 7 9 9 12 12 12 10 8 8 8 9 8 5 6 7 6 4
3 3 5 9 12 14 19 24 26 25 17 3 4 6 5 5 8 9 5 4 3 3 7 7 7 5 2 1 4 3 5 5 8 3 5 2 5 6 6 7 8 8 9 7 8 8 7 6 8 7 6 5 4 6
8 1 6 12 15 19 21 22 19 18 6 4 8 7 5 4 6 4 6 6 5 5 7 9 5 4 3 3 4 5 3 5 4 4 6 2 3 3 4 5 4 8 8 8 8 7 7 7 8 8 8 6 5 8
9 10 6 12 23 22 23 18 25 7 3 3 1 6 2 1 2 3 4 4 1 10 11 5 4 3 3 5 3 5 4 5 5 5 3 3 3 4 5 5 5 6 6 5 6 6 7 7 7 8 7 6 8 8
3 3 2 21 20 22 8 13 8 4 5 4 9 3 1 2 3 5 5 5 6 6 5 4 4 4 3 5 4 2 8 4 2 3 3 3 4 5 3 4 4 4 5 5 6 5 6 7 6 2 6 10 9 9
8 3 16 20 9 11 18 6 5 8 5 5 3 4 3 5 4 3 6 6 7 3 3 4 4 3 5 4 4 6 4 3 4 5 4 5 5 5 3 3 3 3 5 5 3 4 3 3 4 8 12 7 7 8
3 7 18 13 3 6 5 8 6 6 6 4 4 5 5 6 4 5 7 8 5 3 4 4 5 8 5 4 3 2 5 5 6 5 5 6 6 5 3 3 3 3 4 5 5 6 6 7 8 4 3 2 4 5
5 13 19 15 7 6 5 5 4 6 4 1 3 2 4 6 7 6 7 7 6 6 6 7 11 6 5 5 5 5 4 4 3 3 5 5 5 6 5 3 4 6 7 6 6 4 4 6 4 3 3 4 4 3
4 23 22 18 9 5 6 5 4 6 5 3 4 5 5 5 5 5 9 8 7 8 12 10 6 3 3 3 4 3 4 5 3 2 5 4 4 4 5 4 4 5 4 4 6 6 3 4 4 4 4 5 4 3
12 12 16 9 6 9 6 4 5 3 4 4 3 3 5 3 5 8 7 9 11 10 6 4 3 3 3 3 3 4 5 5 4 3 2 2 3 5 5 5 5 5 5 6 6 5 6 4 2 3 3 3 3 2
5 14 5 10 6 5 5 6 3 1 4 3 3 4 5 5 5 7 5 12 8 4 3 2 3 2 3 4 4 3 3 2 1 3 4 5 4 4 4 5 4 5 5 5 5 5 4 4 4 3 3 3 3 2
9 9 7 10 8 8 3 4 3 5 5 4 3 5 5 4 4 4 9 7 4 5 3 2 2 2 1 2 3 5 6 5 5 5 4 4 5 5 5 6 6 5 5 6 5 3 2 4 4 3 4 3 3 3
13 11 10 8 10 4 4 6 5 4 4 4 5 5 5 4 3 7 8 4 4 5 5 6 5 2 2 5 6 6 6 4 5 5 6 4 5 5 5 5 5 4 2 2 3 3 4 4 6 5 4 3 4 3
15 14 9 11 7 8 8 6 7 5 6 6 5 5 4 3 6 7 4 3 4 6 6 5 4 5 5 5 5 6 8 6 5 6 6 5 3 3 3 3 3 4 1 5 6 5 5 4 4 4 4 3 4 5
14 9 8 9 7 7 6 5 6 8 4 5 6 3 3 5 8 6 3 2 2 4 5 5 5 4 6 6 4 5 6 5 2 4 4 5 6 4 3 4 3 3 6 2 2 3 5 4 3 6 4 6 6 5
10 7 4 4 3 4 5 4 4 6 7 8 5 5 5 8 6 2 1 3 2 2 4 4 4 4 4 4 4 5 5 5 3 3 2 3 4 3 4 3 2 4 4 4 3 2 4 5 5 7 4 3 3 3
5 6 8 9 5 6 5 6 7 7 5 5 3 7 5 4 3 1 2 3 3 3 2 2 3 2 2 2 2 4 4 5 4 3 3 3 2 3 3 2 3 9 4 4 3 4 3 4 5 7 4 5 7 4
5 6 3 7 5 7 8 6 5 3 3 2 3 3 3 3 2 2 3 4 3 3 4 4 5 5 4 4 3 3 3 4 5 5 3 3 4 4 3 3 4 4 4 3 8 9 9 9 10 9 8 6 9 7
8 5 4 6 7 8 5 3 4 3 1 4 6 9 5 3 3 3 3 4 3 2 1 1 1 3 3 3 4 5 2 1 3 4 2 3 4 4 5 5 5 5 4 3 5 5 10 9 7 5 6 6 6 7
4 5 6 6 6 2 2 3 4 8 5 6 5 6 3 3 1 2 2 1 1 2 3 3 4 1 2 3 1 3 4 3 3 4 5 4 5 6 6 6 5 4 4 4 3 4 8 9 7 8 9 10 11 10
5 5 3 5 3 3 5 4 2 3 4 4 4 3 5 5 3 4 2 3 4 3 3 2 2 4 4 4 3 4 8 6 5 5 5 5 5 6 7 7 6 6 3 3 5 7 8 8 9 9 11 13 12 12
4 5 5 4 5 5 5 4 5 3 5 4 3 0 1 4 3 4 2 3 4 4 4 4 5 4 5 5 5 4 5 5 7 10 12 14 13 12 8 4 7 3 4 5 6 7 10 11 11 12 12 13 13 14
Wind_Direction
268 264 260 256 255 258 262 269 269 263 266 267 258 257 240 264 284 284 198 192 200 207 200 198 200 185 181 267 183 143 113 184 148 195 209 191 171 201 148 129 169 166 172 193 214 232 248 174 17 167 212 346 224 107
268 266 261 256 255 258 261 265 268 266 263 264 263 260 260 237 263 275 227 172 169 220 84 217 318 306 200 158 129 211 7 159 170 171 187 139 162 154 169 203 121 198 192 185 200 204 259 111 255 17 194 171 187 134
264 263 261 254 249 254 260 262 267 268 261 259 262 260 259 254 247 259 213 145 106 168 289 94 205 162 154 200 163 164 211 236 242 317 142 143 185 139 173 227 131 244 178 149 134 184 187 269 251 260 323 26 73 90
266 265 257 255 262 259 258 263 265 270 262 261 261 256 259 252 249 253 216 193 145 124 240 206 325 127 106 164 181 127 121 92 103 342 134 156 152 118 171 104 137 171 139 135 24 320 334 279 259 263 281 72 93 97
265 265 264 263 261 257 259 262 267 266 267 265 257 254 255 249 253 250 215 218 183 170 187 131 33 104 111 188 170 146 136 131 161 152 124 126 94 127 71 57 233 192 159 169 218 177 182 205 217 224 238 226 177 131
259 258 265 269 262 254 250 255 268 272 270 264 256 252 245 249 250 244 243 205 214 167 154 165 64 19 344 172 164 133 119 93 78 107 119 91 35 77 186 200 205 175 186 161 186 178 202 230 206 199 206 130 144 151
262 261 260 266 260 248 251 262 270 272 264 257 250 248 247 244 234 212 194 0 184 121 131 141 172 151 31 89 57 109 135 80 72 114 114 123 114 341 90 213 208 197 188 222 155 115 91 149 209 172 149 148 133 110
269 265 261 256 257 256 263 269 266 263 255 256 259 254 251 250 249 248 231 254 180 122 170 169 114 144 187 152 112 223 128 125 3 113 45 117 101 112 244 234 278 90 134 93 110 49 74 117 71 72 76 101 100 152
266 261 259 255 255 260 257 259 269 261 257 255 260 275 272 222 201 216 178 191 211 179 175 140 149 165 157 102 115 19 156 85 299 101 195 99 157 213 336 28 71 18 32 325 78 72 55 90 98 95 98 84 136 204
264 260 258 250 254 263 262 266 271 266 261 280 278 229 221 196 154 145 164 190 206 187 171 172 103 136 163 139 155 103 128 146 134 232 109 121 240 90 39 38 38 16 13 354 58 23 9 5 175 165 207 125 138 152
253 254 261 265 260 257 266 272 272 263 243 226 224 225 260 158 139 161 238 182 191 152 139 135 118 132 215 136 127 151 170 170 145 242 126 230 277 91 14 26 18 12 9 13 4 346 358 347 358 12 17 24 31 54
268 277 269 266 271 269 267 251 260 258 207 196 172 110 122 233 179 217 182 189 196 150 127 128 140 118 144 128 107 242 140 143 186 141 102 237 85 36 14 2 -0 5 359 356 2 3 6 28 11 5 33 30 22 24
292 283 8 335 311 291 283 271 264 241 180 130 182 218 136 195 228 198 154 119 151 211 148 156 133 128 96 105 87 135 127 181 127 98 211 114 78 41 6 358 347 1 358 356 2 8 21 43 39 38 39 15 38 49
207 344 332 329 312 298 293 276 249 164 107 213 183 213 185 169 234 201 154 155 132 125 133 129 107 117 125 95 137 131 93 128 166 144 229 79 48 338 8 9 6 347 353 0 2 4 23 39 46 35 29 16 47 49
247 292 301 313 320 315 299 270 182 114 95 272 186 160 143 51 39 301 314 68 78 149 130 108 81 84 95 109 79 120 154 166 183 197 78 52 30 20 19 6 1 357 353 5 2 13 24 35 45 45 20 27 51 58
20 6 332 322 319 325 303 80 53 75 66 48 11 99 317 104 40 15 11 75 10 112 81 70 108 106 102 120 148 115 150 161 93 71 59 55 48 41 2 354 348 338 358 15 23 29 41 43 45 37 45 45 46 59
56 7 320 333 344 24 29 64 59 51 51 37 12 5 8 64 46 45 342 355 327 216 89 106 98 91 103 97 75 21 55 67 89 79 70 49 45 34 350 15 360 18 36 27 12 22 29 28 41 52 55 18 41 52
37 319 352 354 27 55 36 28 73 69 67 20 51 360 61 33 19 27 339 347 319 34 39 64 33 55 44 96 97 71 74 77 65 76 50 35 32 18 18 9 1 26 40 36 33 18 31 42 53 45 51 59 71 68
65 21 17 20 67 77 70 44 27 98 67 43 102 82 101 102 72 21 352 353 44 35 65 48 54 41 48 29 42 47 36 31 27 40 77 68 51 27 2 17 34 40 48 51 48 48 43 35 32 15 15 51 66 35
92 31 17 24 29 73 69 34 350 64 54 47 23 20 59 62 24 21 23 15 36 54 48 44 42 26 26 6 2 4 22 1 340 68 72 56 40 52 40 35 20 0 13 49 48 47 47 43 25 18 20 32 58 44
25 355 10 41 49 57 70 7 58 44 93 66 346 29 73 71 36 9 27 8 54 36 62 41 22 19 338 11 7 355 34 5 24 31 16 15 18 57 37 23 43 39 42 29 39 41 45 38 334 348 37 27 14 22
349 7 42 13 67 70 74 25 44 38 65 73 60 35 39 38 18 24 24 41 66 38 39 2 354 336 357 17 9 7 291 288 22 64 52 44 33 32 25 13 34 59 53 32 28 33 29 8 353 360 28 340 359 2
11 28 45 13 59 41 14 333 50 14 62 63 47 43 41 49 34 28 71 53 71 29 7 326 291 228 352 69 56 36 16 52 58 46 54 64 53 56 56 48 40 44 39 20 6 16 -0 355 346 352 344 346 354 345
31 43 29 34 20 23 341 31 18 37 50 50 45 60 44 34 53 62 69 64 25 6 15 2 4 56 59 50 49 34 13 25 67 46 19 63 70 60 58 55 46 34 17 312 9 5 7 3 1 357 348 349 342 341
66 3 31 3 0 10 31 24 7 20 60 27 63 50 41 20 67 61 63 35 11 15 13 2 38 39 51 50 43 42 24 23 53 58 20 7 41 64 65 78 72 53 16 29 15 5 347 342 352 345 337 345 340 324
67 17 37 2 1 18 0 40 26 15 18 68 47 69 44 61 65 59 55 9 356 9 11 3 10 26 44 30 34 21 10 356 33 75 40 30 40 56 49 44 10 347 8 18 19 336 324 319 321 328 325 329 327 333
45 354 15 30 357 336 45 38 22 43 42 31 5 26 44 64 66 66 104 21 36 24 33 20 22 36 34 22 16 7 11 4 42 120 117 85 69 69 88 83 342 268 329 331 343 322 307 321 316 321 294 307 296 294
47 37 18 358 39 8 54 41 31 20 7 345 15 37 71 71 97 85 61 57 54 58 51 22 15 21 42 6 337 348 349 343 354 12 23 43 71 98 79 6 303 334 325 312 300 301 312 300 299 300 314 304 302 280
28 343 345 16 36 53 37 29 16 4 344 341 83 78 86 54 339 58 43 56 39 51 38 13 351 358 6 357 18 15 16 19 62 50 27 301 330 303 4 333 312 306 301 304 308 323 312 316 329 322 312 288 292 287
350 349 58 28 50 48 2 18 354 18 39 80 95 99 74 45 6 12 42 37 58 84 218 179 277 48 11 23 334 340 321 79 109 126 179 257 249 284 311 299 295 284 281 278 291 298 309 314 300 307 300 297 294 292
327 4 44 35 72 2 309 299 85 67 47 58 45 76 97 145 310 342 60 121 115 46 46 1 339 322 57 359 3 348 317 286 204 235 235 245 262 265 269 274 271 268 270 267 276 284 295 301 295 290 292 291 290 288
22 25 48 61 36 340 12 25 18 52 12 40 3 36 15 44 16 290 251 90 39 24 270 186 237 279 225 230 230 230 237 264 271 265 273 276 273 264 268 268 268 269 248 261 281 286 285 280 287 285 285 285 283 282
33 24 29 49 18 11 338 26 26 29 29 33 347 310 195 154 194 252 287 179 177 203 238 237 239 252 252 253 250 257 249 238 253 274 298 296 291 287 286 275 280 237 264 262 274 281 282 278 278 279 279 279 281 282